Tracking 19574 objects as of 16-Feb-2019
HD Live streaming from Space Station
objects crossing your sky now

COSMOS 826

Track COSMOS 826 now!
10-day predictions
COSMOS 826 is classified as:


NORAD ID: 8890
Int'l Code: 1976-054B
Perigee: 1,489.2 km
Apogee: 1,550.9 km
Inclination: 74.0 °
Period: 116.3 minutes
Semi major axis: 7891 km
RCS: 0.6963 m2 (medium)
Launch date: June 15, 1976
Source: Commonwealth of Independent States (former USSR) (CIS)
Launch site: PLESETSK MISSILE AND SPACE COMPLEX (PKMTR)
aabbcc
Your satellite tracking list
Your tracking list is empty




NASA's NSSDC Master Catalog

Two Line Element Set (TLE):
1  8890U 76054B   19046.95311569 -.00000013 +00000-0 +17563-4 0  9997
2  8890 074.0026 329.2397 0039057 046.8563 027.8629 12.38515483929270
Source of the keplerian elements: AFSPC